[[{"header":{"parameterUnit":"m.s-1","parameterCategory":1,"la1":30.2991,"la2":30.254,"lo1":-89.0895,"lo2":-89.0444,"dy":0.0017,"dx":0.0017,"nx":28,"ny":28,"refTime":"2023-10-10T03:00:00:Z","depth":0,"parameterNumber":2,"parameterNumberName":"U-component_of_WINDS"},"data":[0,0,0,0,0,0,0,0,0,0,0,0,0,0,0,0,0,0,0,0,0,0,0,0,0,0,0,0,0,0,0,0,0,0,0,0,0,0,0,0,0,0,0,0,0,0,0,0,0,0,0,0,0,0,0,0,0,0,-0.8248,-0.8248,0,-0.8189,-0.8188,-0.8188,-0.815,-0.815,-0.815,-0.815,-0.8087,-0.8086,-0.8084,0,0,0,0,0,0,0,0,0,0,0,0,0,-0.8329,-0.8327,-0.8249,-0.8248,-0.8247,-0.8189,-0.8188,-0.8188,-0.815,-0.815,-0.815,-0.815,-0.8088,-0.8086,-0.8084,0,0,0,0,0,0,0,0,0,0,0,0,0,-0.8284,-0.8327,-0.8249,-0.8221,-0.8218,-0.8189,-0.8188,-0.8187,-0.815,-0.815,-0.815,-0.8149,-0.8088,-0.8086,-0.8084,-0.8076,0,0,-0.8077,-0.8076,0,0,0,0,0,0,0,0,-0.8287,-0.8281,-0.8226,-0.8223,-0.822,-0.8177,-0.8194,-0.815,-0.815,-0.8176,-0.815,-0.8149,-0.8117,-0.8112,-0.8102,-0.8074,-0.8071,-0.8077,-0.8075,-0.8075,-0.8074,0,0,0,0,0,0,0,-0.829,-0.8283,-0.8225,-0.8225,-0.8222,-0.8212,-0.8205,-0.8185,-0.8149,-0.8174,-0.8171,-0.8165,-0.8115,-0.8104,-0.81,-0.807,-0.8077,-0.8075,-0.8074,-0.8073,-0.8034,-0.8034,0,0,0,0,0,0,-0.8297,-0.8286,-0.8227,-0.8223,-0.8253,-0.8211,-0.8203,-0.8191,-0.8149,-0.8143,-0.8165,-0.8163,-0.8108,-0.8103,-0.8098,-0.8087,-0.8075,-0.8072,-0.8071,-0.8033,-0.8034,-0.8034,0,0,0,0,0,0,-0.8299,-0.8292,-0.8229,-0.8254,-0.8245,-0.821,-0.8196,-0.819,-0.8179,-0.8142,-0.8136,-0.816,-0.8108,-0.8101,-0.8082,-0.8084,-0.8071,-0.8069,-0.8033,-0.8033,-0.8034,-0.8066,0,0,0,0,0,0,-0.8302,-0.8293,-0.829,-0.8254,-0.8244,-0.8215,-0.8196,-0.8189,-0.8175,-0.8172,-0.8136,-0.813,-0.8107,-0.8086,-0.808,-0.8081,-0.8068,-0.8033,-0.8033,-0.8034,-0.8064,-0.8067,-0.8069,0,0,0,0,0,-0.8305,-0.8301,-0.829,-0.8283,-0.824,-0.8215,-0.8209,-0.8183,-0.8176,-0.8172,-0.8149,-0.8131,-0.8085,-0.8084,-0.8078,-0.8078,-0.8032,-0.8033,-0.8034,-0.8063,-0.8066,-0.8069,0,0,0,0,0,0,-0.8337,-0.8296,-0.8283,-0.8268,-0.8246,-0.8209,-0.8204,-0.8188,-0.8167,-0.8165,-0.8133,-0.8125,-0.811,-0.8092,-0.8092,-0.8069,-0.8057,-0.8056,-0.8081,-0.8084,-0.8087,-0.8092,-0.8066,0,0,0,0,0,-0.8343,-0.8327,-0.8291,-0.8281,-0.8271,-0.8239,-0.8228,-0.821,-0.8185,-0.8175,-0.8151,-0.8127,-0.8107,-0.8095,-0.8075,-0.8062,-0.8053,-0.8059,-0.8061,-0.8064,-0.8063,-0.8056,-0.8058,-0.8036,-0.8036,-0.8036,0,0,-0.8354,-0.8329,-0.8321,-0.8287,-0.8268,-0.8252,-0.8232,-0.8215,-0.8203,-0.8172,-0.8154,-0.8135,-0.8107,-0.8091,-0.8083,-0.8076,-0.8068,-0.8064,-0.8067,-0.8065,-0.8057,-0.8059,-0.8061,-0.8037,-0.8036,-0.8036,0,0,-0.8365,-0.8345,-0.8335,-0.8316,-0.8288,-0.8267,-0.8265,-0.8231,-0.8218,-0.8199,-0.8175,-0.8161,-0.8127,-0.8108,-0.8094,-0.81,-0.8083,-0.8095,-0.8108,-0.8102,-0.8103,-0.8105,-0.8108,-0.8109,-0.8095,-0.8095,-0.8095,0,-0.8382,-0.8358,-0.8331,-0.8317,-0.8303,-0.8276,-0.8265,-0.8248,-0.8214,-0.8205,-0.8198,-0.8156,-0.8135,-0.8115,-0.8117,-0.8106,-0.8103,-0.8098,-0.8105,-0.8107,-0.8107,-0.811,-0.8111,-0.8096,-0.8096,-0.8096,-0.8096,0,-0.8381,-0.8364,-0.836,-0.8329,-0.8314,-0.8302,-0.8273,-0.8261,-0.8245,-0.8226,-0.8207,-0.8181,-0.8155,-0.8149,-0.8133,-0.8128,-0.8124,-0.8112,-0.8098,-0.8112,-0.8113,-0.8114,-0.8099,-0.8098,-0.8097,-0.8097,0,0,-0.8411,-0.8366,-0.8365,-0.8351,-0.8318,-0.8304,-0.8291,-0.8267,-0.8258,-0.8236,-0.8224,-0.8197,-0.8186,-0.817,-0.8151,-0.8145,-0.8153,-0.8133,-0.8132,-0.8138,-0.8146,-0.8156,-0.8157,-0.8141,-0.8141,-0.8141,-0.8149,0,-0.8418,-0.8393,-0.8369,-0.8353,-0.8338,-0.8312,-0.83,-0.8279,-0.8261,-0.8245,-0.8224,-0.8206,-0.8192,-0.8182,-0.8176,-0.8153,-0.8154,-0.8152,-0.813,-0.813,-0.8138,-0.8158,-0.8168,-0.8176,-0.8149,-0.8149,-0.8149,0,-0.8423,-0.8403,-0.8385,-0.8355,-0.8347,-0.8337,-0.8314,-0.8299,-0.8275,-0.8262,-0.8245,-0.8226,-0.821,-0.82,-0.8178,-0.8178,-0.8168,-0.8155,-0.8155,-0.8152,-0.814,-0.8156,-0.8178,-0.8179,-0.815,-0.815,-0.815,0,-0.8447,-0.8415,-0.8401,-0.839,-0.8354,-0.8348,-0.8332,-0.8307,-0.8295,-0.8274,-0.8266,-0.8244,-0.8232,-0.8215,-0.819,-0.8184,-0.8172,-0.8159,-0.8161,-0.8162,-0.8159,-0.816,-0.818,-0.8152,-0.8152,-0.8152,-0.8152,0,-0.8457,-0.8448,-0.8412,-0.8403,-0.8392,-0.8365,-0.8354,-0.8336,-0.8315,-0.8302,-0.8278,-0.8267,-0.8235,-0.8219,-0.82,-0.8186,-0.818,-0.817,-0.8165,-0.8172,-0.8173,-0.8164,-0.8163,-0.8153,-0.8152,-0.8152,-0.8152,0,-0.8482,-0.8458,-0.844,-0.8408,-0.84,-0.8393,-0.8365,-0.8356,-0.8337,-0.8321,-0.8316,-0.8286,-0.8267,-0.8241,-0.8213,-0.82,-0.8189,-0.8181,-0.8198,-0.8195,-0.8199,-0.8199,-0.8214,-0.8215,-0.8187,-0.8187,-0.8187,0,-0.8491,-0.8483,-0.845,-0.844,-0.8426,-0.841,-0.8398,-0.8371,-0.8359,-0.8331,-0.8325,-0.8305,-0.8287,-0.8258,-0.8233,-0.8213,-0.8204,-0.8211,-0.8201,-0.8209,-0.8205,-0.8206,-0.8205,-0.8213,-0.8214,-0.8214,-0.8214,0,-0.8508,-0.8497,-0.848,-0.8459,-0.8445,-0.8428,-0.8408,-0.8402,-0.8371,-0.8359,-0.834,-0.8326,-0.8299,-0.8279,-0.8255,-0.8239,-0.8222,-0.8218,-0.8218,-0.8225,-0.8235,-0.823,-0.8205,-0.8218,-0.8217,-0.8217,-0.8217,-0.8217,-0.8525,-0.8518,-0.8494,-0.8476,-0.8459,-0.8443,-0.8433,-0.8413,-0.8396,-0.8373,-0.8358,-0.834,-0.8316,-0.8283,-0.8268,-0.8253,-0.8246,-0.8245,-0.8245,-0.8245,-0.8248,-0.8238,-0.8249,-0.8248,-0.8248,-0.8248,-0.8248,0,-0.8542,-0.8526,-0.851,-0.8485,-0.8471,-0.8457,-0.8436,-0.8425,-0.841,-0.8389,-0.8373,-0.8351,-0.8332,-0.8307,-0.8286,-0.8279,-0.8271,-0.8275,-0.8275,-0.8272,-0.8255,-0.8258,-0.8282,-0.8282,-0.8282,-0.8282,-0.8282,-0.8282,-0.8549,-0.8536,-0.8522,-0.85,-0.8484,-0.8466,-0.8456,-0.844,-0.8424,-0.8401,-0.8386,-0.837,-0.8347,-0.8325,-0.8307,-0.83,-0.8294,-0.83,-0.8291,-0.8276,-0.8273,-0.827,-0.8272,-0.8299,-0.8299,-0.8309,-0.8309,-0.8309]},{"header":{"parameterUnit":"m.s-1","parameterCategory":1,"la1":30.2991,"la2":30.254,"lo1":-89.0895,"lo2":-89.0444,"dy":0.0017,"dx":0.0017,"nx":28,"ny":28,"refTime":"2023-10-10T03:00:00:Z","depth":0,"parameterNumber":3,"parameterNumberName":"V-component_of_WINDS"},"data":[0,0,0,0,0,0,0,0,0,0,0,0,0,0,0,0,0,0,0,0,0,0,0,0,0,0,0,0,0,0,0,0,0,0,0,0,0,0,0,0,0,0,0,0,0,0,0,0,0,0,0,0,0,0,0,0,0,0,1.1685,1.1685,0,1.1651,1.165,1.165,1.1691,1.1692,1.1694,1.1695,1.1657,1.1654,1.1652,0,0,0,0,0,0,0,0,0,0,0,0,0,1.1782,1.178,1.1685,1.1684,1.1684,1.1651,1.165,1.165,1.1691,1.1692,1.1694,1.1696,1.1657,1.1655,1.1652,0,0,0,0,0,0,0,0,0,0,0,0,0,1.1743,1.1779,1.1685,1.17,1.1702,1.1651,1.165,1.165,1.169,1.1693,1.1695,1.1697,1.1658,1.1655,1.1651,1.1583,0,0,1.164,1.1638,0,0,0,0,0,0,0,0,1.1745,1.1739,1.1699,1.1699,1.17,1.1678,1.167,1.1627,1.169,1.1694,1.1695,1.1698,1.1661,1.1658,1.1646,1.1581,1.1579,1.164,1.1637,1.1636,1.1635,0,0,0,0,0,0,0,1.1748,1.1741,1.1671,1.1698,1.1699,1.1708,1.1705,1.1662,1.1665,1.1694,1.1697,1.1693,1.1662,1.165,1.1646,1.1579,1.164,1.1636,1.1634,1.1633,1.1455,1.1452,0,0,0,0,0,0,1.1749,1.1743,1.1672,1.167,1.1729,1.1704,1.1701,1.1682,1.1666,1.1666,1.1691,1.1695,1.1655,1.165,1.1644,1.1562,1.1636,1.1632,1.163,1.1457,1.1454,1.1451,0,0,0,0,0,0,1.1751,1.1742,1.1674,1.1707,1.1699,1.17,1.1679,1.1681,1.1668,1.1663,1.1664,1.1677,1.1656,1.1649,1.1598,1.1561,1.1631,1.1627,1.146,1.1456,1.1453,1.1397,0,0,0,0,0,0,1.1754,1.1743,1.1717,1.1707,1.1697,1.1629,1.1677,1.1678,1.1662,1.1667,1.1651,1.165,1.1658,1.1603,1.1594,1.1557,1.1624,1.1463,1.1458,1.1454,1.1402,1.1392,1.1384,0,0,0,0,0,1.1757,1.1703,1.1716,1.1707,1.1666,1.1626,1.1621,1.1631,1.1659,1.1633,1.163,1.1651,1.1567,1.1597,1.1588,1.1549,1.1466,1.146,1.1454,1.1407,1.1394,1.1384,0,0,0,0,0,0,1.1708,1.1701,1.1716,1.1657,1.1642,1.1633,1.1601,1.1618,1.1594,1.1599,1.1612,1.1608,1.1553,1.1546,1.158,1.1482,1.1521,1.1513,1.1488,1.1476,1.1467,1.1469,1.1621,0,0,0,0,0,1.169,1.166,1.1656,1.1604,1.1596,1.1599,1.1583,1.1592,1.1577,1.157,1.1564,1.1547,1.1517,1.1496,1.1468,1.1403,1.1399,1.1371,1.1362,1.1354,1.1346,1.131,1.1297,1.1433,1.1433,1.1433,0,0,1.1653,1.1646,1.1626,1.1594,1.1583,1.155,1.1594,1.1557,1.1532,1.1564,1.1515,1.151,1.1492,1.1432,1.1406,1.1425,1.1309,1.1347,1.1341,1.1337,1.1303,1.129,1.1279,1.1429,1.1429,1.143,0,0,1.1569,1.1561,1.1516,1.1505,1.149,1.1493,1.1482,1.1471,1.1469,1.142,1.1443,1.1414,1.1362,1.1348,1.1334,1.1245,1.1263,1.1235,1.1185,1.1149,1.1139,1.1129,1.1096,1.1084,1.1228,1.1228,1.1228,0,1.1524,1.1476,1.1491,1.1453,1.1437,1.1467,1.1421,1.1409,1.1384,1.1372,1.1395,1.1331,1.1321,1.1258,1.1236,1.1225,1.1212,1.1236,1.1139,1.113,1.1121,1.109,1.1078,1.1225,1.1225,1.1225,1.1226,0,1.1422,1.1388,1.1354,1.1331,1.1312,1.127,1.1277,1.1256,1.1268,1.1268,1.1217,1.1207,1.1177,1.1163,1.1173,1.1102,1.1114,1.1138,1.1176,1.1105,1.1075,1.1064,1.122,1.1221,1.1222,1.1223,0,0,1.1303,1.129,1.1277,1.1266,1.1251,1.1225,1.1184,1.1157,1.1138,1.112,1.1085,1.1041,1.1063,1.1047,1.1056,1.1025,1.0954,1.1053,1.1053,1.1033,1.0873,1.0854,1.084,1.0967,1.0965,1.0963,1.0874,0,1.1217,1.1148,1.116,1.1092,1.1061,1.1089,1.1053,1.1039,1.1039,1.1011,1.101,1.0978,1.1011,1.1001,1.0972,1.0969,1.0922,1.0976,1.0933,1.0931,1.0935,1.0824,1.0804,1.072,1.0862,1.0861,1.0859,0,1.1108,1.1087,1.1016,1.1006,1.0993,1.0961,1.0936,1.091,1.0895,1.0897,1.088,1.0895,1.0853,1.0894,1.0836,1.0873,1.0856,1.0852,1.0849,1.0844,1.0889,1.0814,1.0694,1.0681,1.0841,1.0843,1.0844,0,1.1026,1.0981,1.0932,1.0923,1.091,1.0887,1.0881,1.0868,1.085,1.0829,1.0817,1.0791,1.0775,1.0754,1.0761,1.0791,1.0701,1.0743,1.07,1.0699,1.0678,1.0679,1.0551,1.067,1.067,1.067,1.0671,0,1.0928,1.0883,1.0896,1.0866,1.0816,1.0831,1.078,1.0777,1.0766,1.0735,1.0758,1.0728,1.074,1.071,1.0716,1.0666,1.0659,1.0658,1.066,1.0655,1.0655,1.0643,1.0648,1.0667,1.0668,1.0669,1.0669,0,1.0828,1.0835,1.0784,1.0777,1.0774,1.0737,1.0731,1.0702,1.0704,1.0664,1.0656,1.0658,1.0625,1.0631,1.0593,1.0597,1.0534,1.0544,1.054,1.0541,1.0497,1.05,1.0356,1.0337,1.047,1.0468,1.0467,0,1.0764,1.073,1.072,1.0701,1.0693,1.0663,1.0646,1.0659,1.064,1.062,1.0593,1.0563,1.0538,1.0483,1.0481,1.0453,1.0461,1.0412,1.0456,1.0452,1.0458,1.0459,1.0455,1.0402,1.0401,1.04,1.0399,0,1.0649,1.0654,1.0629,1.0604,1.0583,1.0565,1.0548,1.0531,1.0543,1.052,1.0487,1.0468,1.0431,1.0399,1.0372,1.0365,1.0383,1.0385,1.0373,1.0367,1.0366,1.0364,1.0514,1.0388,1.0389,1.039,1.039,1.0391,1.0564,1.0535,1.0523,1.0494,1.0483,1.0467,1.044,1.0439,1.0412,1.0383,1.0393,1.0354,1.034,1.0307,1.0296,1.0266,1.0284,1.0267,1.0262,1.0257,1.0252,1.0372,1.0261,1.0262,1.0262,1.0262,1.0262,0,1.0448,1.0443,1.0416,1.0392,1.0369,1.0391,1.0373,1.0352,1.0319,1.0304,1.0281,1.0242,1.0212,1.0208,1.0179,1.0155,1.0163,1.0147,1.0148,1.0145,1.0238,1.025,1.0141,1.0141,1.0141,1.0141,1.0141,1.0141,1.0386,1.0338,1.0342,1.0288,1.0283,1.0246,1.0234,1.0219,1.0208,1.0165,1.014,1.0138,1.0128,1.0098,1.0071,1.0071,1.0058,1.0039,1.0041,1.0127,1.0139,1.015,1.0162,1.0036,1.0036,0.9951,0.995,0.995]}]]